Location: Drawsko Pomorskie
(53.5317°N, 15.8111°E)
Time: 10:37:16
(UTC+01:00)

ISS - Pass Details

Date: 27 January 2019
Orbit: 403 x 411 km, 51.6° (Epoch: 16 February)

Event Time Altitude Azimuth Distance (km) Brightness Sun altitude
Rises 19:59:07 0° 264° (W) 2,339 1.1 -30.9°
Reaches altitude 10° 20:01:13 10° 261° (W) 1,479 -0.2 -31.2°
Enters shadow 20:01:18 11° 261° (W) 1,444 -0.3 -31.2°
